Flight Track Log - Related Links

Times and Time Zones

All times are in EDT time to prevent confusion due to time zone crossing. See the QXE635 flight status page for this flight to view local times or setup timezone preferences in your user account.

Time Position Orientation Groundspeed Altitude Reporting Facility
EDT Latitude Longitude Course Direction KTS MPH feet Rate Location/Type
Mon 12:04:59 PM 47.4622 -122.3119 359° North 133 153 1,400  Level Seattle Center
Mon 12:05:29 PM 47.4758 -122.3122 305° West 131 151 2,200 1,714 Climbing Seattle Center
Mon 12:06:30 PM 47.4983 -122.3600 215° Southwest 191 220 4,000 2,146 Climbing Seattle Center
Mon 12:07:32 PM 47.4508 -122.4086 173° South 218 251 6,600 2,244 Climbing Seattle Center
Mon 12:08:33 PM 47.3886 -122.3981 151° Southeast 229 264 8,600 1,707 Climbing Seattle Center
Mon 12:09:35 PM 47.3308 -122.3514 155° Southeast 247 284 10,100 1,415 Climbing Seattle Center
Mon 12:10:36 PM 47.2656 -122.3058 181° South 273 314 11,500 1,366 Climbing Seattle Center
Mon 12:11:38 PM 47.1908 -122.3078 180° South 275 316 12,900 1,268 Climbing Seattle Center
Mon 12:12:39 PM 47.1125 -122.3086 180° South 283 326 14,100 1,512 Climbing Seattle Center
Mon 12:13:41 PM 47.0161 -122.3092 179° South 288 331 16,000 1,415 Climbing Seattle Center
Mon 12:14:42 PM 46.9392 -122.3081 181° South 281 323 17,000 488 Climbing Seattle Center
Mon 12:15:44 PM 46.8508 -122.3106 179° South 325 374 17,000  Level Seattle Center
Mon 12:16:45 PM 46.7589 -122.3086 180° South 333 383 17,000  Level Seattle Center
Mon 12:17:47 PM 46.6669 -122.3083 182° South 335 386 17,000  Level Seattle Center
Mon 12:18:49 PM 46.5744 -122.3142 189° South 335 386 17,000  Level Seattle Center
Mon 12:19:50 PM 46.4644 -122.3386 187° South 336 387 17,000  Level Seattle Center
Mon 12:20:52 PM 46.3719 -122.3547 186° South 337 388 17,000 -585 Level Seattle Center
Mon 12:21:53 PM 46.2794 -122.3686 188° South 338 389 15,800 -1,686 Descending Seattle Center
Mon 12:22:53 PM 46.1756 -122.3906 187° South 351 404 13,600 -1,850 Descending Seattle Center
Mon 12:23:53 PM 46.0803 -122.4067 202° Southwest 347 399 12,100 -744 Descending Seattle Center
Mon 12:24:54 PM 45.9969 -122.4544 203° Southwest 332 382 12,100 -787 Level Seattle Center
Mon 12:25:55 PM 45.9086 -122.5078 199° South 320 368 10,500 -1,525 Descending Seattle Center
Mon 12:26:56 PM 45.8317 -122.5458 196° South 295 339 9,000 -1,488 Descending Seattle Center
Mon 12:27:56 PM 45.7575 -122.5761 148° Southeast 283 326 7,500 -1,438 Descending Seattle Center
Mon 12:28:57 PM 45.6958 -122.5217 145° Southeast 265 305 6,100 -1,082 Descending Seattle Center
Mon 12:29:58 PM 45.6375 -122.4625 135° Southeast 253 291 5,300 -931 Descending Seattle Center
Mon 12:30:53 PM 45.5967 -122.4039 192° South 230 265 4,300 -1,023 Descending Seattle Center
Mon 12:32:07 PM 45.5442 -122.4197 273° West 213 245 3,100 -1,181 Descending Seattle Center
Mon 12:33:00 PM 45.5469 -122.4978 299° West 198 228 1,800 -1,220 Descending Seattle Center
Mon 12:34:10 PM 45.5683 -122.5522 299° West 170 196 600 -1,029 Descending Seattle Center

Login

Don't have an account? Register now (free) for customized features, flight alerts, and more!